TimeCST,TemperatureF,Dew PointF,Humidity,Sea Level PressureIn,VisibilityMPH,Wind Direction,Wind SpeedMPH,Gust SpeedMPH,PrecipitationIn,Events,Conditions,WindDirDegrees,DateUTC
12:00 AM,67,65,93,29.89,3,Calm,Calm,,,,Haze,,2013-11-21 06:00:00
12:00 AM,66.2,66.2,100,30.03,3.1,Calm,Calm,-,N/A,,Mostly Cloudy,0,2013-11-21 06:00:00
1:00 AM,66.2,64.4,94,30.03,3.7,ENE,3.5,-,N/A,Fog,Patches of Fog,70,2013-11-21 07:00:00
2:00 AM,64.4,62.6,94,30.02,1.2,ENE,3.5,-,N/A,,Mostly Cloudy,60,2013-11-21 08:00:00
3:00 AM,63,62,93,29.89,6,ENE,10.4,,,,Scattered Clouds,70,2013-11-21 09:00:00
3:00 AM,62.6,60.8,94,30.01,6.2,ENE,4.6,-,N/A,,Scattered Clouds,70,2013-11-21 09:00:00
4:00 AM,64.4,60.8,88,30.01,5.0,NNE,5.8,-,N/A,Fog,Fog,30,2013-11-21 10:00:00
5:00 AM,62.6,59.0,88,30.03,-9999.0,ENE,3.5,-,N/A,,Clear,70,2013-11-21 11:00:00
6:00 AM,64,59,78,29.94,9,ENE,5.8,,,,Partly Cloudy,60,2013-11-21 12:00:00
6:00 AM,64.4,59.0,83,30.04,-9999.0,ENE,5.8,-,N/A,,Clear,60,2013-11-21 12:00:00
7:00 AM,69.8,60.8,73,30.06,-9999.0,NNE,6.9,-,N/A,,Clear,30,2013-11-21 13:00:00
8:00 AM,75.2,60.8,61,30.07,-9999.0,East,3.5,-,N/A,,Clear,90,2013-11-21 14:00:00
9:00 AM,77,73,83,29.93,12,WSW,8.1,,,,Clear,250,2013-11-21 15:00:00
9:00 AM,77.0,64.4,65,30.07,-9999.0,WSW,8.1,-,N/A,,Clear,250,2013-11-21 15:00:00
10:00 AM,77.0,64.4,65,30.07,6.2,West,9.2,-,N/A,,Partly Cloudy,260,2013-11-21 16:00:00
11:00 AM,75.2,64.4,69,30.05,6.2,SW,9.2,-,N/A,,Scattered Clouds,220,2013-11-21 17:00:00
12:00 PM,78,66,58,29.84,12,West,6.9,,,,Scattered Clouds,270,2013-11-21 18:00:00
12:00 PM,77.0,66.2,69,30.03,6.2,West,6.9,-,N/A,,Scattered Clouds,270,2013-11-21 18:00:00
1:00 PM,78.8,66.2,65,30.01,6.2,WSW,9.2,-,N/A,,Mostly Cloudy,240,2013-11-21 19:00:00
2:00 PM,78.8,66.2,65,29.99,6.2,WSW,6.9,-,N/A,,Mostly Cloudy,240,2013-11-21 20:00:00
3:00 PM,79,67,57,29.85,12,WSW,8.1,,,,Mostly Cloudy,240,2013-11-21 21:00:00
3:00 PM,78.8,66.2,65,29.97,6.2,WSW,8.1,-,N/A,,Scattered Clouds,240,2013-11-21 21:00:00
4:00 PM,75.2,68.0,78,29.98,6.2,SW,9.2,-,N/A,,Scattered Clouds,230,2013-11-21 22:00:00
5:00 PM,71.6,69.8,94,29.99,5.0,WSW,8.1,-,N/A,Fog,Fog,240,2013-11-21 23:00:00
6:00 PM,69,69,100,29.91,1,SW,5.8,,,,Mist,230,2013-11-22 00:00:00
6:00 PM,69.8,69.8,100,30.01,3.1,SW,5.8,-,N/A,,Mostly Cloudy,230,2013-11-22 00:00:00
7:00 PM,69.8,69.8,100,30.04,2.5,SW,4.6,-,N/A,,Mostly Cloudy,230,2013-11-22 01:00:00
8:00 PM,69.8,68.0,94,30.05,2.5,SSW,2.3,-,N/A,,Mostly Cloudy,200,2013-11-22 02:00:00
9:00 PM,68,67,94,29.92,5,Calm,Calm,,,,Mist,,2013-11-22 03:00:00
9:00 PM,68.0,66.2,94,30.06,5.0,Calm,Calm,-,N/A,Fog,Fog,0,2013-11-22 03:00:00
9:47 PM,68.0,68.0,100,30.06,5.0,SSW,2.3,-,N/A,,Partly Cloudy,200,2013-11-22 03:47:00
10:00 PM,68.0,68.0,100,30.06,5.0,NW,2.3,-,N/A,,Partly Cloudy,320,2013-11-22 04:00:00
11:00 PM,68.0,64.4,88,30.05,5.0,East,3.5,-,N/A,Fog,Fog,80,2013-11-22 05:00:00